Location: Alvediston
(51.0078°N, 2.0364°W)
Time: 20:59:03
(UTC+00:00)

STARLINK-24 - Pass Details

Date: 27 February 2020
Orbit: 527 x 529 km, 53.0° (Epoch: 29 March)

Event Time Altitude Azimuth Distance (km) Brightness Sun altitude
Rises 18:33:15 0° 268° (W) 2,662 9.7 -8.4°
Reaches altitude 10° 18:35:29 10° 271° (W) 1,774 7.9 -8.8°
Maximum altitude 18:39:29 66° 354° (N) 580 3.7 -9.4°
Enters shadow 18:42:58 13° 76° (ENE) 1,573 5.3 -9.9°
